Powrót do katalogu

FENGYUN 1C DEB

AktywnySSO
NORAD 30669·DEBRIS·🇨🇳 China

Wystrzelony May 10, 1999 z Taiyuan Satellite Launch Center

Loading…

Następne Przeloty (najbliższe 24 godziny)

TLE

ŚwieżeSource: Space-Track

Epoka: Sep 14, 2026, 07:03 UTC

1 30669U 99025AQB 26257.29405174  .00001077  00000-0  66526-3 0  9996
2 30669  98.6410 185.2853 0118234 121.5032  39.0018 14.03889579993184

Śledź FENGYUN 1C DEB w czasie rzeczywistym z AllMySat

Download on the App Store